Flag for Switzerland Weather past 2 weeks in Onex, Geneva, Switzerland

Now
61 °F

Passing clouds.


Feels Like: 61 °F
Forecast: 48 / 68 °F
Wind: 7 mph from West

Location: Geneva Cointrin Airport

Current Time: Aug 23, 2014 at 10:18:01 PM

Latest Report: Aug 23, 2014 at 9:50 PM


Visibility: N/A

Pressure: 30.09 "Hg

Humidity: 59%

Dew point: 46 °F

Location of OnexLocation

Historic Weather in Onex — Graph

°F

Onex temperature yesterday

Maximum temperature yesterday: 75 °F (at 3:20 PM)
Minimum temperature yesterday: 50 °F (at 2:50 AM)
Average temperature yesterday: 62 °F

Past Weeks' High & Low Weather Summary

 TemperatureHumidityPressure
High84 °F (Aug 10, 3:50 PM)100% (Aug 9, 3:50 AM)30.21 "Hg (Aug 9, 3:50 AM)
Low46 °F (Aug 17, 4:50 AM)34% (Aug 18, 3:50 PM)29.74 "Hg (Aug 13, 6:50 AM)
Average63 °F72%30.01 "Hg
* Reported Aug 8 9:20 PM — Aug 23 9:20 PM, Onex, Weather by CustomWeather, © 2014

Note: Actual official high and low records may vary slightly from our data, if they occured in-between our weather recording intervals... More about our weather records

Advertising

Onex weather history for previous 24 hours

 ConditionsComfort  
Time TempWeatherWind HumidityBarometerVisibility
9:20 PM
Aug 23
61 °FPartly sunny.7 mph63%30.09 "HgN/A
8:50 PM63 °FPartly sunny.6 mph59%30.09 "HgN/A
8:20 PM63 °FPartly sunny.7 mph56%30.09 "HgN/A
7:50 PM64 °FPartly sunny.6 mph49%30.07 "HgN/A
7:20 PM64 °FScattered clouds.8 mph49%30.07 "HgN/A
6:50 PM66 °FScattered clouds.8 mph46%30.07 "HgN/A
6:20 PM66 °FBroken clouds.10 mph46%30.07 "HgN/A
5:50 PM66 °FPartly sunny.12 mph49%30.07 "HgN/A
5:20 PM68 °FPartly sunny.8 mph46%30.07 "HgN/A
4:50 PM66 °FPartly sunny.8 mph49%30.07 "HgN/A
4:20 PM66 °FBroken clouds.10 mph49%30.07 "HgN/A
3:50 PM68 °FBroken clouds.10 mph43%30.07 "HgN/A
3:20 PM68 °FBroken clouds.6 mph43%30.07 "HgN/A
2:50 PM70 °FBroken clouds.8 mph43%30.07 "HgN/A
2:20 PM66 °FPartly sunny.2 mph49%30.07 "HgN/A
1:50 PM68 °FBroken clouds.6 mph46%30.07 "HgN/A
1:20 PM70 °FBroken clouds.7 mph43%30.07 "HgN/A
12:50 PM66 °FBroken clouds.2 mph49%30.07 "HgN/A
12:20 PM66 °FBroken clouds.3 mph52%30.07 "HgN/A
11:50 AM66 °FPartly sunny.5 mph52%30.07 "HgN/A
11:20 AM64 °FPartly sunny.5 mph60%30.07 "HgN/A
10:50 AM64 °FPartly sunny.7 mph60%30.07 "HgN/A
10:20 AM64 °FPartly sunny.5 mph60%30.04 "HgN/A
9:50 AM63 °FPartly sunny.2 mph68%30.04 "HgN/A
9:20 AM59 °FPartly sunny.2 mph77%30.04 "HgN/A
8:50 AM59 °FPartly sunny.1 mph77%30.04 "HgN/A
8:20 AM57 °FPartly sunny.No wind88%30.04 "HgN/A
7:50 AM55 °FPartly sunny.1 mph88%30.04 "HgN/A
7:20 AM55 °FPassing clouds.1 mph88%30.04 "HgN/A
6:50 AM55 °FPartly cloudy.1 mph88%30.01 "HgN/A
6:20 AM55 °FPassing clouds.2 mph88%30.01 "HgN/A
5:50 AM55 °FPassing clouds.3 mph88%30.01 "HgN/A
5:20 AM55 °FPassing clouds.3 mph88%30.01 "HgN/A
4:50 AM55 °FPartly cloudy.3 mph88%30.01 "HgN/A
4:20 AM55 °FPassing clouds.No wind88%30.01 "HgN/A
3:50 AM55 °FPassing clouds.No wind88%30.01 "HgN/A
3:20 AM55 °FPassing clouds.No wind88%30.01 "HgN/A
2:50 AM55 °FPassing clouds.1 mph82%30.01 "HgN/A
2:20 AM55 °FPassing clouds.No wind82%30.01 "HgN/A
1:50 AM55 °FPassing clouds.2 mph82%30.01 "HgN/A
1:20 AM57 °FPassing clouds.3 mph77%30.04 "HgN/A
12:50 AM57 °FPassing clouds.2 mph77%30.04 "HgN/A
12:20 AM59 °FPassing clouds.2 mph72%30.04 "HgN/A
11:50 PM
Aug 22
59 °FPassing clouds.2 mph72%30.01 "HgN/A
11:20 PM59 °FPassing clouds.1 mph68%30.01 "HgN/A
10:50 PM59 °FPassing clouds.2 mph68%30.01 "HgN/A
10:20 PM59 °FPassing clouds.3 mph68%30.01 "HgN/A
Weather by CustomWeather, © 2014

See weather overviewHow to use our weather pages